This is the latest recevied weather packets stored in our database for station/object NQ9F. If no packets are shown the sender has not sent any weather packets the latest 10 day(s).
| Time | Temp. | Humidity | Pressure | Rain* | Wind** | Luminosity | Snow |
|---|---|---|---|---|---|---|---|
| 1777987217 | 21.11° C | 86% | 1003.7 hPa | 0 mm | - | 112 W/m² | - |
| 1777986914 | 21.11° C | 86% | 1003.8 hPa | 0 mm | - | 95 W/m² | - |
| 1777986612 | 21.11° C | 86% | 1003.7 hPa | 0 mm | - | 102 W/m² | - |
| 1777986309 | 21.11° C | 86% | 1003.7 hPa | 0 mm | - | 112 W/m² | - |
| 1777986008 | 21.11° C | 86% | 1003.5 hPa | 0 mm | - | 103 W/m² | - |
| 1777985704 | 21.11° C | 86% | 1003.5 hPa | 0 mm | - | 97 W/m² | - |
| 1777985401 | 21.11° C | 86% | 1003.7 hPa | 0 mm | - | 79 W/m² | - |
| 1777985097 | 21.11° C | 86% | 1003.5 hPa | 0 mm | - | 80 W/m² | - |
| 1777984793 | 21.11° C | 86% | 1003.5 hPa | 0 mm | - | 71 W/m² | - |
| 1777984490 | 20.56° C | 86% | 1003.5 hPa | 0 mm | - | 66 W/m² | - |
| 1777984186 | 20.56° C | 87% | 1003.3 hPa | 0 mm | - | 56 W/m² | - |
| 1777983884 | 20.56° C | 87% | 1003.3 hPa | 0 mm | - | 47 W/m² | - |
| 1777983580 | 20.56° C | 87% | 1003.1 hPa | 0 mm | - | 36 W/m² | - |
| 1777983277 | 20.56° C | 87% | 1003 hPa | 0 mm | - | 32 W/m² | - |
| 1777982973 | 20.56° C | 87% | 1003.2 hPa | 0 mm | - | 26 W/m² | - |
| 1777982670 | 20.56° C | 87% | 1003.1 hPa | 0 mm | - | 20 W/m² | - |
| 1777982368 | 20.56° C | 87% | 1003.1 hPa | 0 mm | - | 14 W/m² | - |
| 1777982065 | 20.56° C | 86% | 1003 hPa | 0 mm | - | 8 W/m² | - |
| 1777981764 | 20.56° C | 86% | 1003.1 hPa | 0 mm | - | 5 W/m² | - |
| 1777981459 | 20.56° C | 86% | 1003.2 hPa | 0 mm | - | 3 W/m² | - |
| 1777981156 | 20.56° C | 86% | 1003.2 hPa | 0 mm | - | 2 W/m² | - |
| 1777980853 | 20.56° C | 86% | 1003.4 hPa | 0 mm | - | 1 W/m² | - |
| 1777980548 | 20.56° C | 86% | 1003 hPa | 0 mm | - | 0 W/m² | - |
| 1777980246 | 20.56° C | 86% | 1003 hPa | 0 mm | - | 0 W/m² | - |
| 1777979942 | 20.56° C | 85% | 1003 hPa | 0 mm | - | 0 W/m² | - |
* Rain latest hour (hover to see other rain measurements)
** Current wind speed in m/s (hover to see current wind gust speed)